User: anonymous   Login
Location: Kolin
(50.0330°N, 15.2000°E)
Time: 19:55:41
(UTC+02:00)
Language:

SEEDS - Orbit

View from above orbital plane
View from above orbital plane
View from above satellite
View from above satellite

Ground track
Ground track

The orbit data is extracted from the following two-line orbital elements,

1 32791U 08021J   22224.88246748  .00002664  00000-0  26178-3 0  9997
2 32791  97.6153 199.3949 0012897  10.3482 349.8001 14.92907224775693
Epoch (UTC): 12 August 2022 21:10:45
Eccentricity: 0.0012897
inclination: 97.6153°
perigee height: 580 km
apogee height: 598 km
right ascension of ascending node: 199.3949°
argument of perigee: 10.3482°
revolutions per day: 14.92907224
mean anomaly at epoch: 349.8001°
orbit number at epoch: 77569

The dashed part of the orbit path shows where the satellite is in the earth's shadow,  

DLR